Weather Service Report


432 
ASUS42 KFFC 190303
RWRGA 
WEATHER ROUNDUP FOR GEORGIA
NATIONAL WEATHER SERVICE PEACHTREE CITY GA
1100 PM EDT SAT APR 18 2015

NOTE: "FAIR" INDICATES FEW OR NO CLOUDS BELOW 12,000 FEET WITH NO
SIGNIFICANT WEATHER AND/OR OBSTRUCTIONS TO VISIBILITY. 

* = USE WITH CAUTION. THE STATIONS MARKED WITH AN ASTERISK MAY NOT
REPORT WEATHER SUCH AS PRECIPITATION, FOG, OR THUNDER AND ARE NOT 
QUALITY CONTROLLED BY NWS.

THE REMARK "TC" DENOTES TEMPERATURE READING IN DEGREES CELSIUS.

GAZ001>058-190400-
NORTH GEORGIA
  
CITY           SKY/WX    TMP DP  RH WIND       PRES   REMARKS
ATLANTA        CLOUDY    67  64  90 SE5       29.96R                  
ATHENS         CLOUDY    65  64  97 CALM      29.97R                  
CHAMBLEE       MOCLDY    65  64  97 CALM      29.96R                  
PEACHTREE CITY CLOUDY    67  66  97 CALM      29.97R                  
ROME           CLOUDY    65  65 100 CALM      29.94R                  
WEST ATLANTA   MOCLDY    65  63  93 CALM      29.96R                  
GAINESVILLE    CLOUDY    64  63  96 E5        29.99S                  
CARTERSVILLE   CLOUDY    65  63  93 CALM      29.95R                  

  
CITY           SKY/WX    TMP DP  RH WIND       PRES   REMARKS
DALTON*        CLOUDY    66  64  94 CALM      29.94S                  
MARIETTA       DRIZZLE   64  64 100 CALM      29.96S                  
BLAIRSVILLE*     N/A     67  40  38 CALM      29.99F                  
$$

GAZ059>098-102>109-190400-
CENTRAL GEORGIA
  
CITY           SKY/WX    TMP DP  RH WIND       PRES   REMARKS
AUGUSTA-BUSH   FAIR      63  63 100 CALM      29.97R                  
AUGUSTA-DANIEL FAIR      69  66  90 E5        29.98R                  
COLUMBUS       CLOUDY    69  66  90 CALM      29.94S                  
MACON          CLOUDY    69  68  96 CALM      29.96R                  
ROBINS AFB     CLOUDY    70  68  95 SE2       29.95S                  

  
CITY           SKY/WX    TMP DP  RH WIND       PRES   REMARKS
LAGRANGE*      CLOUDY    71  71  99 CALM      29.95F                  
SYLVANIA*      CLOUDY    70  69  96 SE3       29.99S                  
MILLEDGEVILLE* CLOUDY    68  68 100 CALM      29.96S                  
$$

GAZ099>101-110>166-190400-
SOUTH GEORGIA
  
CITY           SKY/WX    TMP DP  RH WIND       PRES   REMARKS
SAVANNAH       CLOUDY    69  67  93 S5        29.98S                  
VALDOSTA       CLOUDY    71  71 100 S3        29.96S                  
ALMA           CLOUDY    73  70  90 CALM      29.96S                  
ST SIMONS      CLOUDY    71  69  93 CALM      29.97F                  
FT STEWART     CLOUDY    70  67  90 S5        29.95F                  
ALBANY         CLOUDY    71  69  93 CALM      29.96F                  
HUNTER AFB     CLOUDY    69  69 100 SE3       29.95F                  
MOODY AFB      CLOUDY    71  69  94 E2        29.94F                  
BRUNSWICK      CLOUDY    72  68  88 CALM      29.98S                  

  
CITY           SKY/WX    TMP DP  RH WIND       PRES   REMARKS
BAINBRIDGE*    CLOUDY    73  72  94 CALM      29.96R                  
MOULTRIE*      CLOUDY    72  72 100 CALM      29.96F                  
VIDALIA*       RAIN      72  70  94 CALM      29.97S                  
WAYCROSS*      CLOUDY    75  72  90 CALM      29.97S                  
DOUGLAS*       CLOUDY    75  72  88 CALM      29.98S                  
$$

Return to Home page


Western Regional Climate Center, wrcc@dri.edu